RADUGA 2

Satellite information

Favourite Embed

Satellite Type and Status

PAYLOADIN ORBIT

Key statistics

Satellite RADUGA 2 at a glance.

Uptime

17991

Days in orbit

Revolutions

≈ 1.0

Per day

Orbit

GEO

Geostationary Orbit

Inclination

4.0

Latest

Satellite identification and parameters

Extended collection of information and parameters for RADUGA 2.

Object identification

Identified? True

Debris? False

Object name: RADUGA 2

International designator: 1976-092A

Object number (NORAD): 9416

Object ID (CCSDS): 9416

Country: COMMONWEALTH OF INDEPENDENT STATES (CIS)

Current information (Y/N): Y

RCS size: MEDIUM

Orbital parameters

Period: 1436.391 minutes

Inclination: 3.9567 deg

SMA: 42170.497 km

Apoapsis: 35918.123 km

Periapsis: 35666.602 km

RAAN: 272.4719 deg

Eccentricy: 0.00298219

Argument of periapsis: 31.5307 deg

Mean anomaly: 26.8302 deg

Mean motion: 1.00251223 rev/day

Mean motion (dot): 0.00000006 rev/day2

B* drag term: 0.0 1/REarth

Two-line elements (TLE)

Creation date: Dec. 14, 2025, 3:07 a.m.

Reference frame: TEME

Reference center: EARTH

Epoch: Dec. 13, 2025, 12:03 p.m. UTC

TLE line 0: 0 RADUGA 2

TLE line 1: 1 09416U 76092A 25347.50250285 .00000006 00000-0 00000-0 0 9998

TLE line 2: 2 09416 3.9567 272.4719 0029822 31.5307 26.8302 1.00251223127485

Live tracking on map

Real-time ground track for satellite RADUGA 2.

In-orbit conjunctions

A list of the most updated potential collisions computed for object RADUGA 2.

Target Orbit TCA Probability of collision Miss distance Type
HGS 4 (GALAXY 4) OTHER 2025-08-26 21:22:24 TBA 3651.0 (m) PAYLOAD
SL-12 R/B(2) GEO 2025-05-29 15:58:30 TBA 2993.0 (m) ROCKET BODY
COSMOS 2371 OTHER 2024-07-17 01:51:07 TBA 4223.0 (m) PAYLOAD

Associated space launch

Geostationary communications satellite for military and governmental puposes

RADUGA 2 was lifted into orbit during the mission ‘Proton-K/DM | Raduga 2’, on board a Proton-K/DM space rocket.

The launch took place on Sept. 11, 1976, 6:24 p.m. from 81/24 (81P).

For more information about the launch, click the button.

Launch to space Proton-K/DM | Raduga 2
Proton-K/DM | Raduga 2

Agency: N/A

Status: Launch Successful

Launch date: Sept. 11, 1976, 6:24 p.m. UTC

Rocket: Proton-K/DM

Launch pad: 81/24 (81P)

Location: Baikonur Cosmodrome, Republic of Kazakhstan

...

Latest news about this satellite

There are no fresh news available about this satellite. Check back as we update our databases every day.


Newsletter sign-up

Weekly statistics, charts and insights to help you stay on top of the space industry.